Location: Home
(42.5358°N, 72.7383°W)
Time: 15:36:10
(UTC-05:00)

Vanguard 3 - Pass Details

Date: 08 December 2021
Orbit: 508 x 3260 km, 33.3° (Epoch: 20 January)

Event Time Altitude Azimuth Distance (km) Brightness Sun altitude
Rises 00:30:23 0° 210° (SSW) 6,012 - -67.9°
Reaches altitude 10° 00:34:29 10° 202° (SSW) 5,335 - -67.5°
Maximum altitude 00:49:05 36° 144° (SE) 4,305 - -65.9°
Exits shadow 00:56:04 29° 112° (ESE) 4,771 10.9 -65.0°
Drops below altitude 10° 01:05:39 10° 87° (E) 6,078 11.7 -63.8°
Sets 01:10:40 0° 80° (E) 6,916 12.2 -63.1°
